[[{"header":{"parameterUnit":"m.s-1","parameterCategory":1,"la1":30.2991,"la2":30.254,"lo1":-89.0895,"lo2":-89.0444,"dx":0.0017,"dy":0.0017,"nx":28,"ny":28,"refTime":"2022-12-13T09:00:00:Z","depth":0,"parameterNumber":2,"parameterNumberName":"U-component_of_WINDS"},"data":[0,0,0,0,0,0,0,0,0,0,0,0,0,0,0,0,0,0,0,0,0,0,0,0,0,0,0,0,0,0,0,0,0,0,0,0,0,0,0,0,0,0,0,0,0,0,0,0,0,0,0,0,0,0,0,0,0,0,-2.3243,-2.3245,0,-2.3406,-2.3408,-2.341,-2.3467,-2.3467,-2.3466,-2.3466,-2.3633,-2.3638,-2.3643,0,0,0,0,0,0,0,0,0,0,0,0,0,-2.2984,-2.2988,-2.3243,-2.3245,-2.3247,-2.3406,-2.3408,-2.341,-2.3467,-2.3467,-2.3466,-2.3465,-2.3631,-2.3637,-2.3643,0,0,0,0,0,0,0,0,0,0,0,0,0,-2.3116,-2.299,-2.3243,-2.3295,-2.3301,-2.3405,-2.3408,-2.3411,-2.3468,-2.3467,-2.3466,-2.3465,-2.3629,-2.3637,-2.3644,-2.3709,0,0,-2.3667,-2.367,0,0,0,0,0,0,0,0,-2.3109,-2.3126,-2.3285,-2.3291,-2.3299,-2.3415,-2.3378,-2.3511,-2.3468,-2.3404,-2.3466,-2.3465,-2.3561,-2.3574,-2.3607,-2.3716,-2.3724,-2.3668,-2.3672,-2.3676,-2.3678,0,0,0,0,0,0,0,-2.31,-2.3119,-2.3307,-2.3287,-2.3296,-2.3311,-2.3329,-2.3403,-2.3486,-2.341,-2.3414,-2.3433,-2.3565,-2.36,-2.3611,-2.3726,-2.3668,-2.3674,-2.3679,-2.3682,-2.3898,-2.39,0,0,0,0,0,0,-2.3081,-2.3111,-2.3302,-2.3312,-2.32,-2.3316,-2.3336,-2.3379,-2.3485,-2.3501,-2.3433,-2.3435,-2.3587,-2.3603,-2.3617,-2.3701,-2.3676,-2.3683,-2.3687,-2.3897,-2.3899,-2.39,0,0,0,0,0,0,-2.3076,-2.3098,-2.3296,-2.3213,-2.3239,-2.3322,-2.3369,-2.3382,-2.3417,-2.3503,-2.3518,-2.3454,-2.3587,-2.3607,-2.3686,-2.3707,-2.3686,-2.3693,-2.3896,-2.3898,-2.3899,-2.3866,0,0,0,0,0,0,-2.3068,-2.3095,-2.312,-2.3213,-2.3244,-2.336,-2.337,-2.3386,-2.343,-2.3433,-2.3526,-2.3541,-2.3588,-2.3674,-2.3693,-2.3717,-2.3699,-2.3894,-2.3897,-2.3899,-2.3866,-2.3867,-2.3868,0,0,0,0,0,-2.3058,-2.3104,-2.3121,-2.3144,-2.3276,-2.3361,-2.3379,-2.3432,-2.3431,-2.3457,-2.3513,-2.3538,-2.3702,-2.3682,-2.3704,-2.373,-2.3893,-2.3896,-2.3899,-2.3866,-2.3867,-2.3868,0,0,0,0,0,0,-2.3011,-2.3117,-2.3137,-2.3214,-2.3278,-2.3371,-2.3405,-2.3432,-2.3498,-2.3498,-2.3562,-2.3583,-2.3657,-2.3702,-2.3677,-2.3799,-2.3799,-2.3806,-2.3766,-2.3768,-2.3769,-2.3756,-2.3705,0,0,0,0,0,-2.3009,-2.3069,-2.3159,-2.3219,-2.325,-2.3322,-2.3361,-2.3397,-2.3466,-2.3494,-2.3555,-2.3622,-2.3689,-2.3731,-2.3798,-2.3874,-2.3895,-2.3903,-2.3904,-2.3904,-2.3909,-2.3953,-2.3958,-2.3909,-2.3909,-2.3909,0,0,-2.3007,-2.3072,-2.3106,-2.3211,-2.3265,-2.3326,-2.3344,-2.3408,-2.3455,-2.3504,-2.3582,-2.3629,-2.3708,-2.3786,-2.3824,-2.3826,-2.3928,-2.3907,-2.3907,-2.3912,-2.3957,-2.3961,-2.3965,-2.3911,-2.3911,-2.3911,0,0,-2.3033,-2.3089,-2.3145,-2.3199,-2.3281,-2.3329,-2.3342,-2.3432,-2.3465,-2.3545,-2.3583,-2.364,-2.3754,-2.3808,-2.3851,-2.3901,-2.3926,-2.3921,-2.3925,-2.3968,-2.3971,-2.3975,-2.3993,-2.3999,-2.3926,-2.3926,-2.3926,0,-2.3019,-2.3113,-2.317,-2.3232,-2.3278,-2.3326,-2.3383,-2.3433,-2.3532,-2.3563,-2.3565,-2.3709,-2.3766,-2.3857,-2.387,-2.3903,-2.3921,-2.391,-2.3966,-2.3971,-2.3975,-2.3993,-2.3999,-2.3925,-2.3925,-2.3925,-2.3925,0,-2.3092,-2.3157,-2.3192,-2.3287,-2.3337,-2.3396,-2.3463,-2.3507,-2.3539,-2.3587,-2.3669,-2.3739,-2.382,-2.3845,-2.3877,-2.3942,-2.3941,-2.3954,-2.3955,-2.3977,-2.3995,-2.4002,-2.3923,-2.3924,-2.3924,-2.3924,0,0,-2.3091,-2.3218,-2.323,-2.3274,-2.3369,-2.3421,-2.3483,-2.3563,-2.36,-2.3668,-2.3722,-2.3818,-2.3831,-2.388,-2.3919,-2.3956,-2.3992,-2.3965,-2.3967,-2.3967,-2.4068,-2.4057,-2.4064,-2.401,-2.4011,-2.4013,-2.4061,0,-2.313,-2.3243,-2.3297,-2.3386,-2.3447,-2.3495,-2.355,-2.3614,-2.3662,-2.3721,-2.3774,-2.3841,-2.3853,-2.3882,-2.3922,-2.3979,-2.4013,-2.3976,-2.4061,-2.4063,-2.4038,-2.4073,-2.4062,-2.4104,-2.4069,-2.407,-2.4071,0,-2.3189,-2.3256,-2.3352,-2.3441,-2.3469,-2.3517,-2.3595,-2.3651,-2.3726,-2.3758,-2.3813,-2.3852,-2.3921,-2.3918,-2.4014,-2.3988,-2.4027,-2.406,-2.4063,-2.4072,-2.4067,-2.4082,-2.4119,-2.4125,-2.4082,-2.4081,-2.4081,0,-2.3178,-2.3293,-2.3365,-2.3402,-2.3508,-2.354,-2.3586,-2.3661,-2.3706,-2.3775,-2.3805,-2.3881,-2.3923,-2.3982,-2.404,-2.4033,-2.4131,-2.4133,-2.4159,-2.4158,-2.4176,-2.4174,-2.4218,-2.4202,-2.4202,-2.4202,-2.4202,0,-2.3214,-2.3271,-2.3362,-2.3406,-2.3472,-2.3534,-2.3598,-2.3647,-2.3713,-2.3769,-2.3815,-2.3867,-2.3941,-2.4002,-2.4048,-2.4121,-2.414,-2.4168,-2.4179,-2.4163,-2.4159,-2.4188,-2.4186,-2.4204,-2.4204,-2.4203,-2.4203,0,-2.3212,-2.3276,-2.3358,-2.3452,-2.3477,-2.3521,-2.3602,-2.3647,-2.3698,-2.3768,-2.3788,-2.3867,-2.3941,-2.4006,-2.4104,-2.4135,-2.421,-2.4224,-2.4184,-2.419,-2.4213,-2.4209,-2.4276,-2.4289,-2.4265,-2.4265,-2.4265,0,-2.3231,-2.3275,-2.3375,-2.3415,-2.346,-2.3525,-2.3571,-2.3636,-2.3683,-2.3773,-2.3807,-2.3885,-2.3951,-2.4068,-2.4134,-2.421,-2.4226,-2.4245,-2.4238,-2.4221,-2.4226,-2.4222,-2.4227,-2.4244,-2.4244,-2.4244,-2.4244,0,-2.3257,-2.3287,-2.3351,-2.3428,-2.3483,-2.3546,-2.3611,-2.3642,-2.3719,-2.3769,-2.3846,-2.3897,-2.3997,-2.4074,-2.4158,-2.4206,-2.4238,-2.4246,-2.4256,-2.4239,-2.4214,-2.4228,-2.4184,-2.4244,-2.4244,-2.4244,-2.4244,-2.4244,-2.3266,-2.3308,-2.3385,-2.3456,-2.3512,-2.3572,-2.3619,-2.3676,-2.3741,-2.3828,-2.3863,-2.3941,-2.4017,-2.4133,-2.4181,-2.4244,-2.4249,-2.4263,-2.4267,-2.4269,-2.4266,-2.4205,-2.4259,-2.426,-2.426,-2.426,-2.426,0,-2.3294,-2.3346,-2.3411,-2.3501,-2.3557,-2.3583,-2.3657,-2.3703,-2.3771,-2.3839,-2.3903,-2.3992,-2.4067,-2.414,-2.422,-2.4256,-2.4273,-2.4275,-2.4272,-2.4283,-2.4258,-2.4241,-2.426,-2.426,-2.426,-2.426,-2.426,-2.426,-2.3315,-2.3388,-2.3427,-2.3529,-2.3581,-2.3658,-2.3698,-2.3754,-2.3809,-2.3906,-2.3968,-2.4016,-2.4087,-2.4172,-2.4243,-2.4263,-2.429,-2.4287,-2.4311,-2.4286,-2.4285,-2.4284,-2.4268,-2.4293,-2.4293,-2.4331,-2.4332,-2.4332]},{"header":{"parameterUnit":"m.s-1","parameterCategory":1,"la1":30.2991,"la2":30.254,"lo1":-89.0895,"lo2":-89.0444,"dx":0.0017,"dy":0.0017,"nx":28,"ny":28,"refTime":"2022-12-13T09:00:00:Z","depth":0,"parameterNumber":3,"parameterNumberName":"V-component_of_WINDS"},"data":[0,0,0,0,0,0,0,0,0,0,0,0,0,0,0,0,0,0,0,0,0,0,0,0,0,0,0,0,0,0,0,0,0,0,0,0,0,0,0,0,0,0,0,0,0,0,0,0,0,0,0,0,0,0,0,0,0,0,5.0171,5.0173,0,5.0355,5.0357,5.0359,5.0398,5.0396,5.0395,5.0394,5.0583,5.0589,5.0595,0,0,0,0,0,0,0,0,0,0,0,0,0,4.9854,4.986,5.017,5.0173,5.0175,5.0354,5.0357,5.0359,5.0398,5.0396,5.0395,5.0393,5.0581,5.0588,5.0596,0,0,0,0,0,0,0,0,0,0,0,0,0,5.001,4.9861,5.017,5.0216,5.0222,5.0354,5.0357,5.036,5.0398,5.0396,5.0394,5.0392,5.0578,5.0587,5.0597,5.0696,0,0,5.0626,5.063,0,0,0,0,0,0,0,0,5.0001,5.0022,5.0207,5.0213,5.022,5.0351,5.0315,5.0473,5.0399,5.0331,5.0394,5.0391,5.0507,5.0523,5.0562,5.0705,5.0713,5.0626,5.0632,5.0636,5.0639,0,0,0,0,0,0,0,4.999,5.0014,5.0243,5.021,5.0218,5.0228,5.0248,5.0345,5.0429,5.0337,5.034,5.0362,5.0511,5.0552,5.0566,5.0716,5.0626,5.0635,5.064,5.0644,5.0953,5.0956,0,0,0,0,0,0,4.9971,5.0005,5.0237,5.0249,5.0103,5.0235,5.0258,5.0311,5.0428,5.0444,5.0363,5.0363,5.0537,5.0555,5.0573,5.07,5.0636,5.0645,5.0651,5.0951,5.0954,5.0957,0,0,0,0,0,0,4.9964,4.9992,5.023,5.0128,5.0159,5.0243,5.0303,5.0316,5.0358,5.0447,5.0463,5.039,5.0536,5.056,5.0666,5.0707,5.0649,5.0658,5.0948,5.0952,5.0955,5.0952,0,0,0,0,0,0,4.9955,4.9989,5.0027,5.0128,5.0164,5.0319,5.0305,5.0321,5.0374,5.0375,5.0477,5.0492,5.0537,5.0652,5.0675,5.0719,5.0665,5.0945,5.095,5.0954,5.0949,5.0955,5.0961,0,0,0,0,0,4.9944,5.0018,5.0029,5.0057,5.0214,5.0321,5.0342,5.0392,5.0377,5.0417,5.0475,5.0489,5.0698,5.0662,5.0689,5.0736,5.0942,5.0948,5.0954,5.0946,5.0954,5.0961,0,0,0,0,0,0,4.9919,5.0032,5.0045,5.0155,5.0228,5.0328,5.0379,5.0398,5.0477,5.0475,5.0533,5.0556,5.066,5.0708,5.0666,5.084,5.082,5.0831,5.0805,5.0813,5.0819,5.0806,5.0673,0,0,0,0,0,4.9926,5.0004,5.0099,5.0186,5.0223,5.0294,5.0343,5.0375,5.0454,5.0485,5.0551,5.0627,5.071,5.0764,5.0845,5.0956,5.098,5.1001,5.1007,5.1012,5.1021,5.1086,5.1098,5.0976,5.0976,5.0975,0,0,4.9942,5.0014,5.0059,5.0183,5.0244,5.0325,5.032,5.0405,5.0466,5.0498,5.0603,5.0654,5.0743,5.0853,5.0904,5.0896,5.106,5.1019,5.1022,5.1029,5.1093,5.1105,5.1115,5.0979,5.0979,5.0978,0,0,5.0013,5.0073,5.0155,5.0216,5.0308,5.0356,5.0375,5.0473,5.0508,5.0614,5.0642,5.0714,5.0856,5.0919,5.097,5.1066,5.1083,5.1091,5.1122,5.1185,5.1195,5.1203,5.1241,5.1253,5.11,5.11,5.11,0,5.0021,5.0143,5.0194,5.0278,5.0333,5.0366,5.045,5.0507,5.0621,5.0659,5.0648,5.0828,5.089,5.1016,5.104,5.1079,5.1104,5.108,5.1189,5.1198,5.1207,5.1244,5.1257,5.11,5.11,5.11,5.11,0,5.015,5.0234,5.0288,5.0399,5.0459,5.0543,5.0607,5.0663,5.069,5.0739,5.0848,5.0923,5.1022,5.1054,5.108,5.1185,5.1178,5.1177,5.1158,5.1219,5.1254,5.1268,5.1101,5.1101,5.1101,5.1101,0,0,5.021,5.0349,5.0368,5.042,5.0525,5.0592,5.0677,5.0774,5.0821,5.0899,5.0974,5.1093,5.1095,5.1152,5.1186,5.1241,5.1316,5.1234,5.1237,5.1249,5.1439,5.144,5.1455,5.1327,5.133,5.1332,5.1432,0,5.0296,5.045,5.0499,5.0628,5.0708,5.0741,5.0816,5.0889,5.0937,5.1013,5.1066,5.1151,5.1145,5.118,5.1236,5.1295,5.1355,5.1288,5.1399,5.1402,5.1378,5.1473,5.1474,5.1565,5.1446,5.1448,5.145,0,5.0416,5.0497,5.0634,5.0731,5.0766,5.0833,5.0927,5.0998,5.1082,5.1114,5.1179,5.1209,5.1301,5.1275,5.1404,5.1358,5.1406,5.1442,5.1447,5.1461,5.1431,5.1492,5.1594,5.1609,5.1471,5.1469,5.1468,0,5.045,5.0592,5.0694,5.0737,5.0852,5.0898,5.0948,5.1031,5.1087,5.1168,5.1206,5.1297,5.1348,5.1418,5.1473,5.1449,5.1598,5.1576,5.1629,5.1627,5.166,5.1658,5.1774,5.1687,5.1687,5.1686,5.1686,0,5.0541,5.0624,5.0711,5.0773,5.0868,5.0924,5.1017,5.1069,5.1142,5.1216,5.125,5.1319,5.1386,5.1464,5.1507,5.1609,5.1631,5.166,5.1671,5.1659,5.1655,5.1693,5.1689,5.169,5.1689,5.1689,5.1688,0,5.0596,5.0656,5.077,5.087,5.0897,5.0963,5.1049,5.1112,5.1162,5.1255,5.1281,5.1359,5.1453,5.1514,5.1634,5.1663,5.1775,5.1783,5.1747,5.1753,5.1802,5.1798,5.1949,5.1973,5.1867,5.1868,5.1869,0,5.0651,5.0716,5.0824,5.0876,5.0927,5.101,5.1068,5.1125,5.1184,5.1286,5.1337,5.1433,5.1514,5.1663,5.1731,5.1823,5.1835,5.1882,5.185,5.1836,5.1839,5.1836,5.1844,5.1888,5.1889,5.1889,5.189,0,5.0744,5.0772,5.0853,5.0946,5.1014,5.109,5.1166,5.1206,5.1278,5.1342,5.1439,5.1501,5.1624,5.172,5.1819,5.1872,5.1894,5.19,5.1917,5.1906,5.1884,5.1899,5.1764,5.1896,5.1896,5.1895,5.1895,5.1895,5.0803,5.0863,5.0949,5.104,5.1103,5.1174,5.1238,5.1297,5.1378,5.1483,5.1512,5.1614,5.1699,5.1834,5.1889,5.197,5.1965,5.1989,5.1996,5.2002,5.2004,5.1869,5.1988,5.1988,5.1988,5.1987,5.1987,0,5.09,5.0957,5.104,5.1146,5.1217,5.1231,5.1316,5.1375,5.1465,5.1542,5.162,5.1733,5.1827,5.1903,5.2,5.205,5.2063,5.2074,5.2072,5.2085,5.2001,5.1978,5.2062,5.2062,5.2062,5.2062,5.2062,5.2062,5.0959,5.1063,5.1101,5.1237,5.1294,5.1394,5.1442,5.1508,5.157,5.1694,5.1773,5.1821,5.1899,5.2002,5.209,5.211,5.2145,5.2154,5.2177,5.2098,5.209,5.2082,5.206,5.2161,5.2161,5.2254,5.2255,5.2255]}]]